Missouri Basin, Pleasant Hill
River Forecast Center
| LID | Agency ID | Station Name | Date/Time | Stage (ft) | Flow (cfs) | Longterm Mean Flow (cfs) | Peak Flow (cfs) | Peak Stage (ft) |
|---|---|---|---|---|---|---|---|---|
| LMCN8 | 06331000 | Lil Muddy R Bl Cow Cr Nr Williston, ND | 09/01/2026 14:15 | 4.60 | 4 | --- | 9,180 | 13.57 |
| CACS2 | 06334500 | Lil Missouri R @ Camp Crook, SD | 09/01/2026 14:45 | 1.69 | 2 | --- | 20,100 | 19.40 |
| MTHN8 | 06335500 | Lil Missouri R @ Marmarth, ND | 09/01/2026 15:00 | 0.49 | 2 | --- | 45,000 | 21.70 |
| MDAN8 | 06336000 | Lil Missouri R @ Medora, ND | 09/01/2026 15:00 | 0.95 | 2 | --- | 65,000 | 20.50 |
| TRTN8 | 06336600 | Beaver Cr Nr Trotters, ND | 09/01/2026 15:15 | 1.17 | 0 | --- | 2,720 | 19.24 |
| WTFN8 | 06337000 | Lil Missouri R Nr Watford City, ND | 09/01/2026 15:00 | 6.84 | 5 | --- | 110,000 | 24.00 |
| MNGN8 | 06339100 | Knife R @ Manning, ND | 09/01/2026 15:00 | 5.70 | 0 | --- | 3,800 | 17.63 |
| GDVN8 | 06339500 | Knife R Nr Golden Valley, ND | 09/01/2026 15:15 | 3.78 | 3 | --- | 15,000 | 27.73 |
| ZAPN8 | 06340000 | Spring Cr @ Zap, ND | 09/01/2026 14:45 | 4.63 | 5 | --- | 6,340 | 21.29 |
| KRBN8 | 06340010 | Knife R Nr Beulah, ND | 09/01/2026 15:00 | 53.16 | 11 | --- | 11,000 | 72.32 |
| HZNN8 | 06340500 | Knife R @ Hazen, ND | 09/01/2026 15:00 | 0.74 | 23 | --- | 35,300 | 27.79 |
| CETN8 | 06342260 | Square Butte Cr Blw Center, ND | 09/01/2026 15:15 | 1.07 | 1 | --- | 9,700 | --- |
| BBCN8 | 06342450 | Burnt Cr Nr Bismarck, ND | 09/01/2026 15:00 | 5.23 | 7 | --- | 10,000 | --- |
| BIWN8 | 06342500 | Missouri R @ Bismarck, ND | 09/01/2026 15:15 | 4.78 | 16,700 | --- | 500,000 | 31.60 |
| HRAN8 | 06344600 | Green R Nr New Hradec, ND | 09/01/2026 15:00 | 5.25 | 0 | --- | 4,120 | --- |
| RICN8 | 06345500 | Heart R Nr Richardton, ND | 09/01/2026 15:00 | 3.99 | 16 | --- | 23,400 | --- |
| TCHN8 | 06345780 | Heart R Ab Lk Tschida Nr Glen Ullin, ND | 09/01/2026 15:00 | 2.40 | 10 | --- | 13,000 | --- |
| CRSN8 | 06347000 | Antelope Cr Nr Carson, ND | 09/01/2026 15:00 | 4.49 | 1 | --- | 11,100 | --- |
| ALTN8 | 06347500 | Big Muddy Cr Nr Almont, ND | 09/01/2026 15:00 | 1.20 | 2 | --- | 20,200 | --- |
| JUDN8 | 06348300 | Heart R @ Stark Bridge Nr Judson, ND | 09/01/2026 15:15 | 1.84 | 21 | --- | 23,300 | --- |
| MDNN8 | 06349000 | Heart R Nr Mandan, ND | 09/01/2026 15:15 | 9.06 | 41 | --- | 30,500 | 35.75 |
US Dept of Commerce
National Oceanic and Atmospheric Administration
National Weather Service
Missouri Basin, Pleasant Hill
1803 North 7 Highway
Pleasant Hill, MO 64080-9421
Comments? Questions? Please Contact Us.

